Location: Trout Lake
(45.9980°N, 121.5270°W)
Time: 19:18:11
(UTC-08:00)

USA 234 - Pass Details

Date: 06 December 2023
Orbit: 1099 x 1109 km, 123.0° (Epoch: 13 February)

Event Time Altitude Azimuth Distance (km) Brightness Sun altitude
Exits shadow 17:49:42 20° 62° (ENE) 2,341 4.4 -14.8°
Maximum altitude 17:54:26 59° 136° (SE) 1,260 3.4 -15.5°
Drops below altitude 10° 18:00:53 10° 215° (SW) 2,962 6.3 -16.6°
Sets 18:03:24 0° 219° (SW) 3,917 7.1 -17.0°
